This is the latest recevied weather packets stored in our database for station/object OM6ACB-6. If no packets are shown the sender has not sent any weather packets the latest 10 day(s).
| Time | Temp. | Humidity | Pressure | Rain* | Wind** | Luminosity | Snow |
|---|---|---|---|---|---|---|---|
| 1788030088 | 15.56° C | 25% | 1020.1 hPa | 0 mm | - | - | - |
| 1788029487 | 15.56° C | 25% | 1020.1 hPa | 0 mm | - | - | - |
| 1788028887 | 15.56° C | 25% | 1020 hPa | 0 mm | - | - | - |
| 1788028287 | 16.11° C | 24% | 1020 hPa | 0 mm | - | - | - |
| 1788027686 | 17.22° C | 24% | 1020 hPa | 0 mm | - | - | - |
| 1788027086 | 19.44° C | 23% | 1020.3 hPa | 0 mm | - | - | - |
| 1788026486 | 20° C | 23% | 1020.2 hPa | 0 mm | - | - | - |
| 1788025886 | 20° C | 23% | 1020.2 hPa | 0 mm | - | - | - |
| 1788025285 | 20° C | 22% | 1020.1 hPa | 0 mm | - | - | - |
| 1788024685 | 20° C | 22% | 1020.2 hPa | 0 mm | - | - | - |
| 1788024085 | 20.56° C | 22% | 1020.1 hPa | 0 mm | - | - | - |
| 1788023484 | 21.11° C | 22% | 1020.1 hPa | 0 mm | - | - | - |
| 1788022884 | 21.67° C | 22% | 1020.3 hPa | 0 mm | - | - | - |
| 1788022284 | 22.22° C | 21% | 1020.3 hPa | 0 mm | - | - | - |
| 1788021684 | 23.33° C | 21% | 1020.4 hPa | 0 mm | - | - | - |
| 1788021083 | 23.33° C | 21% | 1020.4 hPa | 0 mm | - | - | - |
| 1788020483 | 23.33° C | 21% | 1020.5 hPa | 0 mm | - | - | - |
| 1788019883 | 26.11° C | 20% | 1020.8 hPa | 0 mm | - | - | - |
| 1788019282 | 26.67° C | 20% | 1020.8 hPa | 0 mm | - | - | - |
| 1788018682 | 27.22° C | 20% | 1020.9 hPa | 0 mm | - | - | - |
| 1788018082 | 28.89° C | 20% | 1021.4 hPa | 0 mm | - | - | - |
| 1788017482 | 30.56° C | 20% | 1021.3 hPa | 0 mm | - | - | - |
| 1788016881 | 30° C | 20% | 1021.4 hPa | 0 mm | - | - | - |
| 1788016281 | 27.78° C | 20% | 1021.2 hPa | 0 mm | - | - | - |
| 1788015681 | 27.78° C | 20% | 1021.3 hPa | 0 mm | - | - | - |
* Rain latest hour (hover to see other rain measurements)
** Current wind speed in m/s (hover to see current wind gust speed)